Regional Weather Roundup
Issued by NWS Raleigh/Durham, NC

Current Version | Previous Version | Graphics & Text | Print | Product List | Glossary On
Versions: 1 2 3 4 5 6 7 8 9 10 11 12 13 14 15 16 17 18 19 20 21 22 23 24 25 26 27 28 29 30 31 32 33 34 35 36 37 38 39 40 41 42 43 44 45 46 47 48 49 50
000
ASUS42 KRAH 310610
RWRRAH
NORTH CAROLINA WEATHER ROUNDUP
NATIONAL WEATHER SERVICE RALEIGH NC
200 AM EDT FRI JUL 31 2015

NOTE: "FAIR" INDICATES FEW OR NO CLOUDS BELOW 12,000 FEET WITH NO
SIGNIFICANT WEATHER AND/OR OBSTRUCTIONS TO VISIBILITY.

NCZ001-053-055-056-065-067-310700-
WESTERN NORTH CAROLINA

CITY           SKY/WX    TMP DP  RH WIND       PRES   REMARKS
ASHEVILLE      CLEAR     74  63  68 N13       30.07F
JEFFERSON      CLEAR     67  55  65 NW6       30.13S
MORGANTON      CLEAR     73  66  78 N3        30.05S
HICKORY        CLOUDY    76  66  71 NE3       29.99F
RUTHERFORDTON  CLOUDY    79  67  67 NE5       29.99S
MOUNT AIRY     CLEAR     75  63  65 CALM      30.02S
BOONE          CLEAR     66  57  72 W8        30.13F
$$

NCZ021-022-025-041-071-084-088-310700-
CENTRAL NORTH CAROLINA

CITY           SKY/WX    TMP DP  RH WIND       PRES   REMARKS
CHARLOTTE      MOCLDY    79  71  76 N5        29.96S
GREENSBORO     MOCLDY    75  63  66 N5        29.97S
WINSTON-SALEM  CLEAR     75  65  70 N5        29.99S
RALEIGH-DURHAM MOCLDY    80  70  71 VRB5      29.92F
FORT BRAGG     CLEAR     78  73  84 NW7       29.89S
FAYETTEVILLE   CLEAR     79  75  87 W5        29.89F
BURLINGTON     PTCLDY    78  65  63 NW8       29.95S
LAURINBURG     CLEAR     75  73  93 CALM      29.90F FOG
$$

NCZ011-015-027-028-043-044-047-080-103-310700-
NORTHEASTERN NORTH CAROLINA

CITY           SKY/WX    TMP DP  RH WIND       PRES   REMARKS
ROCKY MT-WILSO MOCLDY    77  75  93 CALM      29.89F
GREENVILLE     PTCLDY    79  77  94 CALM      29.91F
WASHINGTON     PTCLDY    78  74  89 CALM      29.89F
ELIZABETH CITY PTCLDY    77  75  93 SW5       29.88F
MANTEO         PTCLDY    81  76  84 SW10      29.88F
CAPE HATTERAS  MOCLDY    81  76  84 S7        29.88F
$$

NCZ078-087-090-091-093-098-101-310700-
SOUTHEASTERN NORTH CAROLINA

CITY           SKY/WX    TMP DP  RH WIND       PRES   REMARKS
LUMBERTON      MOCLDY    77  75  93 CALM      29.88F
GOLDSBORO      CLEAR     79  76  92 SE1       29.86F
KINSTON        CLEAR     77  75  93 CALM      29.89F
KENANSVILLE    PTCLDY   N/A N/A N/A CALM      29.90S
NEW BERN       CLEAR     74  72  93 CALM      29.89F
CHERRY POINT   CLEAR     76  74  93 SE3       29.88F
BEAUFORT       PTCLDY    77  76  96 CALM      29.87F
JACKSONVILLE   CLEAR     76  74  93 W3        29.87F
WILMINGTON     PTCLDY    77  75  93 CALM      29.88F
$$




USA.gov is the U.S. government's official web portal to all federal, state and local government web resources and services.